HST 1 20580U 90037B 26254.24165439 .00004921 00000+0 14921-3 0 9992 2 20580 28.4728 212.0253 0001743 28.7294 331.3398 15.31612289801771 POLAR 1 23802U 96013A 26254.30444701 .00000104 00000+0 00000+0 0 9999 2 23802 79.9820 226.0171 6558290 206.1267 95.8749 1.29845775145976 SWAS 1 25560U 98071A 26254.67189346 .00002817 00000+0 17901-3 0 9994 2 25560 69.8981 4.4112 0003364 149.0398 211.0966 15.10077043510327 CXO 1 25867U 99040B 26256.64753562 .00000750 00000+0 00000+0 0 9999 2 25867 57.3946 114.3238 7696465 309.4554 0.6118 0.37808225 17660 XMM-NEWTON 1 25989U 99066A 26255.11572882 .00000042 00000+0 00000+0 0 9991 2 25989 64.0266 281.8601 4649505 63.3658 0.1123 0.50126747 23441 TERRA 1 25994U 99068A 26254.79180175 .00000220 00000+0 53624-4 0 9995 2 25994 97.9375 300.8703 0001584 355.0892 112.5656 14.61158393422254 TIMED 1 26998U 01055B 26254.57855861 .00000855 00000+0 80886-4 0 9990 2 26998 74.0664 61.0460 0001962 237.6556 122.4439 14.95449253343733 CORIOLIS 1 27640U 03001A 26254.65705122 .00000073 00000+0 55133-4 0 9990 2 27640 98.7167 260.2367 0013394 328.1802 31.8564 14.19965702226493 SORCE 1 27651U 03004A 26254.73168865 .00002000 00000+0 15222-3 0 9997 2 27651 39.9900 127.7518 0018483 310.1877 49.7299 15.04096746284933 MOST 1 27843U 03031D 26254.51723058 .00000038 00000+0 37543-4 0 9997 2 27843 98.7082 261.0513 0009996 9.8840 350.2532 14.21337292202974 SCISAT 1 1 27858U 03036A 26254.72845547 .00000430 00000+0 59421-4 0 9994 2 27858 73.9324 359.3812 0006541 34.0243 326.1352 14.81535091244260 SWIFT 1 28485U 04047A 26254.17542298 .00128290 00000+0 64703-3 0 9993 2 28485 20.5506 236.9133 0001854 153.5047 206.5496 15.79838273200420 HINODE (SOLAR-B) 1 29479U 06041A 26254.77805534 .00000379 00000+0 73314-4 0 9990 2 29479 98.0552 269.6595 0017801 17.8692 342.3135 14.68718058 67589 SHIJIAN-6 02A (SJ-6 02A) 1 29505U 06046A 26254.80891638 .00002129 00000+0 10884-3 0 9996 2 29505 97.6290 296.5453 0002798 167.2616 192.8689 15.17771554 85408 SHIJIAN-6 02B (SJ-6 02B) 1 29506U 06046B 26254.85020927 .00000177 00000+0 18356-4 0 9991 2 29506 97.6997 283.3206 0016077 134.8217 225.4317 15.01475861 83746 FGRST (GLAST) 1 33053U 08029A 26254.32148517 .00002497 00000+0 85751-4 0 9994 2 33053 25.5832 326.2297 0007473 262.5381 97.4308 15.24334355 8846 SDO 1 36395U 10005A 26254.52925108 -.00000069 00000+0 00000+0 0 9997 2 36395 34.8295 85.0276 0001746 71.8891 282.5302 1.00274845 60929 CRYOSAT 2 1 36508U 10013A 26254.78304005 .00000055 00000+0 12865-4 0 9998 2 36508 92.0284 298.3324 0002410 84.5600 275.5882 14.51904192870648 X-SAT 1 37389U 11015C 26254.85839471 -.00000059 00000+0 -75413-5 0 9992 2 37389 98.3613 227.7953 0015294 88.0077 272.2854 14.25226996800024 GCOM-W1 (SHIZUKU) 1 38337U 12025A 26254.57761171 .00000291 00000+0 74632-4 0 9995 2 38337 98.2063 193.8368 0001473 87.3929 85.9653 14.57131622761614 NUSTAR 1 38358U 12031A 26254.91668980 .00010232 00000+0 56602-3 0 9999 2 38358 6.0261 103.1907 0008273 314.2954 304.9144 15.09508388 1309 NEOSSAT 1 39089U 13009D 26254.75934024 .00000093 00000+0 47015-4 0 9997 2 39089 98.4226 72.7627 0010850 354.9724 5.1351 14.35852350709165 BRITE-AUSTRIA 1 39091U 13009F 26254.43618846 .00000099 00000+0 48309-4 0 9999 2 39091 98.4045 71.7677 0009916 349.5942 10.5038 14.36570454709439 IRIS 1 39197U 13033A 26254.82851906 .00000659 00000+0 81307-4 0 9999 2 39197 97.9282 93.8297 0025307 38.0425 322.2571 14.86031640713247 HISAKI (SPRINT-A) 1 39253U 13049A 26254.73941027 .00000114 00000+0 69226-4 0 9995 2 39253 29.7188 139.9690 0136485 358.4563 1.5578 13.55550438643173 CASSIOPE 1 39265U 13055A 26254.79050883 .00040066 -54676-6 40025-3 0 9993 2 39265 80.9141 321.0688 0270440 129.0942 233.4689 15.31315719680894 STSAT-3 1 39422U 13066G 26254.86234811 .00003010 00000+0 22696-3 0 9999 2 39422 97.6305 223.4067 0010739 99.4600 260.7840 15.03166272697220 SWARM B 1 39451U 13067A 26254.79812284 .00002334 00000+0 81588-4 0 9994 2 39451 87.7447 316.0194 0003460 91.3560 268.8086 15.29025058696479 SWARM A 1 39452U 13067B 26254.82273198 .00010293 00000+0 17851-3 0 9998 2 39452 87.3352 24.0490 0002337 99.0189 261.1336 15.50710731719675 SWARM C 1 39453U 13067C 26254.82261951 .00008899 00000+0 15425-3 0 9997 2 39453 87.3356 22.6318 0002346 99.0282 261.1245 15.50708448719634 BRITE-CA1 (TORONTO) 1 40020U 14033L 26254.79896810 .00000437 00000+0 73289-4 0 9990 2 40020 97.9852 22.1874 0078369 0.6715 359.4584 14.72810140654960 OCO 2 1 40059U 14035A 26254.81583483 .00000249 00000+0 65314-4 0 9997 2 40059 98.2061 194.8055 0001673 80.4865 279.6522 14.57087745648667 BRITE-PL2 (HEWELIUSZ) 1 40119U 14049B 26254.26122387 .00001701 00000+0 16144-3 0 9990 2 40119 97.9163 6.9702 0013986 178.0521 182.0756 14.94845722654300 MMS 1 1 40482U 15011A 26254.91668980 -.00001807 00000+0 00000+0 0 9997 2 40482 72.9043 347.7943 8258590 169.3296 145.6726 0.28339443 1407 MMS 2 1 40483U 15011B 26254.91668980 -.00001808 00000+0 00000+0 0 9999 2 40483 72.9087 347.7932 8261426 169.3311 145.6515 0.28339397 1408 MMS 3 1 40484U 15011C 26254.91668980 -.00001808 00000+0 00000+0 0 9990 2 40484 72.9081 347.8053 8259798 169.3396 145.6252 0.28339395 1406 MMS 4 1 40485U 15011D 26254.91668980 -.00001808 00000+0 00000+0 0 9991 2 40485 72.9019 347.7892 8259866 169.3495 145.6213 0.28339383 1408 ASTROSAT 1 40930U 15052A 26254.80305094 .00001338 00000+0 80889-4 0 9998 2 40930 5.9967 251.8326 0007946 195.9703 164.0174 14.82637343592708 DAMPE 1 41173U 15078A 26254.84088176 .00000907 00000+0 32863-4 0 9999 2 41173 97.4594 260.7627 0013241 123.0256 237.2259 15.30970799597805 PISAT 1 41784U 16059B 26254.51022328 .00000638 00000+0 11605-3 0 9999 2 41784 97.8244 251.2860 0027568 290.9723 68.8534 14.69119750532416 HXMT (HUIYAN) 1 42758U 17034A 26254.74667942 .00003532 00000+0 17445-3 0 9991 2 42758 43.0145 60.8145 0032012 332.2867 27.6275 15.19107853510823 FLYING LAPTOP 1 42831U 17042G 26254.89336751 .00002203 00000+0 17403-3 0 9997 2 42831 97.4993 47.3151 0016167 185.2662 174.8395 15.01580462499464 ZHANGHENG 1-01 (CSES-1) 1 43194U 18015C 26254.85660817 .00004555 00000+0 21077-3 0 9994 2 43194 97.6951 62.2833 0013819 340.6701 19.4008 15.20586399477814 SALSAT 1 46495U 20068K 26254.52047897 .00005784 00000+0 19648-3 0 9999 2 46495 97.8881 262.9312 0009523 10.7121 349.4320 15.30880202328565 IXPE 1 49954U 21121A 26254.83334491 .00010168 00000+0 53714-3 0 9990 2 49954 0.2313 21.5340 0006869 309.3011 193.4408 15.10943697 5372 SMILE 1 69123U 26109A 26251.80768776 .00000485 00000+0 00000+0 0 9999 2 69123 70.0169 206.2692 8186953 285.8683 5.3377 0.47517332 347